Index of /city-council-files/OrdinancesAndResolutions/Resolutions/Resolutions 2003

[ICO]NameLast modifiedSizeDescription

[PARENTDIR]Parent Directory  -  
[   ]000_INDEX OF CAPTIONS - RESOLUTIONS 2003.doc2017-07-14 13:57 566K 
[   ]23644 Award 81C-Signal Mtn Sewer Relocation-Case Construction.doc2017-07-14 13:57 20K 
[   ]23645 Purchase Sewer Easement-Marina Cove Place-73B-3-Tract 079.1.doc2017-07-14 13:57 19K 
[   ]23646 AcceptProperty-3 parcels Flynn St-fromHamCty.doc2017-07-14 13:57 20K 
[   ]23647 Convey-1600 Blk Olive Street-s2m2 Housing Auth.doc2017-07-14 13:57 20K 
[   ]23648 Convey-Walker-Greenwood-13th-Beech-Hawthorne-Habitat for Humanity (2).doc2017-07-14 13:57 21K 
[   ]23648 Convey-Walker-Greenwood-13th-Beech-Hawthorne-Habitat for Humanity.doc2017-07-14 13:57 21K 
[   ]23649 Convey-Madison-Greenwood-Willow-Carr-CNE (2).doc2017-07-14 13:57 20K 
[   ]23649 Convey-Madison-Greenwood-Willow-Carr-CNE.doc2017-07-14 13:57 20K 
[   ]23650 Amend No 23632 - PurchEasment-Charles Hassler-81C-tract 18.doc2017-07-14 13:57 21K 
[   ]23651 Apply-AcceptGrant-Dept Environmt-ConservationInfrared Thermog-StormwtrMgmt.doc2017-07-14 13:57 20K 
[   ]23652 Award-SChickCreekEngineeringConsult-Jordan-Jones Goulding.doc2017-07-14 13:57 21K 
[   ]23653 Agmt-ConsolidatedTech-gas extraction-Summit Landfill.doc2017-07-14 13:57 19K 
[   ]23654 Agmt-TDOT-SignalMtn Blvd SewerRelocation to SuckCreekRd.doc2017-07-14 13:57 20K 
[   ]23655 PurchSewerEasement-Daniel-Lynette Atchley-73B-3-Tract 001.5.doc2017-07-14 13:57 19K 
[   ]23656 Rescind Reso No 23582 Glenwood Rec Center re-roofing-JDH Co.doc2017-07-14 13:57 20K 
[   ]23657 Purchase Playground Equip-LookoutValley Elementary-Just4Play.doc2017-07-14 13:57 19K 
[   ]23658 Purchase Playground Equip-EastBrainerdHeritagePark-MiracleRecreation.doc2017-07-14 13:57 20K 
[   ]23659 Award Restroom Renovating-LookoutValleyBallfield-Eastman Const.doc2017-07-14 13:57 21K 
[   ]23660 Final PUD 2002-170 Christopher A Amos.doc2017-07-14 13:57 23K 
[   ]23661 Accept Grant-Nunn-Lugar Domenici Domestic Preparedness-US Dept Justice-.doc2017-07-14 13:57 20K 
[   ]23662 Agmt-TDOT-SurfaceTransportProgram STP-EN-9202(85)-21st Waterfront plan.doc2017-07-14 13:57 20K 
[   ]23663 Amend Contract- Hazlett-Lewis Bieter-addtl services re audit.doc2017-07-14 13:57 20K 
[   ]23664 Agmt-Lamar Dunn Assoc-No E-02-007-100 Ziegler Rd.doc2017-07-14 13:57 19K 
[   ]23665 Agmt-Sewer Rehab-No W-02-001-100-Betts Engineering.doc2017-07-14 13:57 20K 
[   ]23666 Change Order 1 - BL-2-01-KW Raines Assoc.doc2017-07-14 13:57 20K 
[   ]23667 Change Order 2- No 55A-3-Mayse Const.doc2017-07-14 13:57 20K 
[   ]23668 Temp Usage-Aquaterra Engineering.doc2017-07-14 13:57 23K 
[   ]23669 Purchase Sewer Easement-Ron-Lorie Marsh-73B-3-Tract 065.doc2017-07-14 13:57 19K 
[   ]23670 Purchase Sewer Easement-Leland-Patricia Rogers-73B-3-Tract 110.1.doc2017-07-14 13:57 19K 
[   ]23671 Purchase Sewer Easement-Barbara Jean Harvey-73B-3-Tract 113.1.doc2017-07-14 13:57 20K 
[   ]23672 Spec Comm-Timmy Belcher-Matt Sigler-Neighborhd Ser.doc2017-07-14 13:57 21K 
[   ]23673 Agmt-Dade County Water-Sewer Auth-wastewater treatment.doc2017-07-14 13:57 20K 
[   ]23674 Apply-AcceptGrant-Dept Environmt-Haz Waste Program.doc2017-07-14 13:57 20K 
[   ]23675 Award-CW-1-01-Spreader Rack-Raines Bros.doc2017-07-14 13:57 20K 
[   ]23676 Award-Sidewalk Light Fixtures-Sun Valley Lighting.doc2017-07-14 13:57 20K 
[   ]23677 Work Auth No 12-Arcadis-Cont 73B-3 Hixson Marina.doc2017-07-14 13:57 20K 
[   ]23678 Purchase Sewer Easement-Hamill Rd-James Henry-Tracts 1-2.doc2017-07-14 13:57 19K 
[   ]23679 Purchase Sewer Easement-Marina Cove Place-73B-3-Tract 004.3.doc2017-07-14 13:57 19K 
[   ]23680 Purchase Sewer Easement-Wm Pierce-Shannon Shipley-73B-3-Tract 030.1.doc2017-07-14 13:57 19K 
[   ]23681 Purchase Sewer Easement-Wm Pierce-Shannon Shipley-73B-3-Tract 031.1.doc2017-07-14 13:57 19K 
[   ]23682 Temp Usage-Central Block Corporation-Eva Dillard.doc2017-07-14 13:57 24K 
[   ]23683 Temp Usage-Centex-Rodgers Inc-Parkridge Hospital.doc2017-07-14 13:57 23K 
[   ]23684 Agmt-Consolidated Technologies-S-02-001-100 Stormwater Mgmt.doc2017-07-14 13:57 19K 
[   ]23685 Change Order 1(final)- 55F-Mayse Const.doc2017-07-14 13:57 20K 
[   ]23686 Temp Usage-Jim Morrow Const.doc2017-07-14 13:57 23K 
[   ]23687 Auth Sale-RiverCity Co-900 blk Park Ave-MR-2002-011.doc2017-07-14 13:57 21K 
[   ]23688 Work Auth No 14-Arcadis-No E-02-003-100 MLK-Bailey 2way St.doc2017-07-14 13:57 20K 
[   ]23689 Adopt Mtn Creek Community Greenway Plan.doc2017-07-14 13:57 23K 
[   ]23690 Preliminary PUD-2003-015 Christopher A Amos.doc2017-07-14 13:57 21K 
[   ]23691 Final PUD 2003-015 Christopher A Amos.doc2017-07-14 13:57 22K 
[   ]23692 Special Exceptions-2003-018 Blood Assurance.doc2017-07-14 13:57 21K 
[   ]23693 Spec Comm-Lee Snell -Erlanger.doc2017-07-14 13:57 20K 
[   ]23694 Agmt Supplemental-TDOT-Norfolk Southern-3rd St Bridge Widening.doc2017-07-14 13:57 21K 
[   ]23695 Purchase Sewer Easement-Robert-Elizabeth Hensley-73B-3-Tract 026.2.doc2017-07-14 13:57 20K 
[   ]23696 Purchase Sewer Easement-Bekir Cignilli-73B-3-Tract 029.1.doc2017-07-14 13:57 20K 
[   ]23697 Purchase Sewer Easement-Khosro Kashani-73B-3-Tract 022.1.doc2017-07-14 13:57 20K 
[   ]23698 Purchase Sewer Easement-Khosro Kashani-73B-3-Tract 023.1.doc2017-07-14 13:57 20K 
[   ]23699 Purchase Sewer Easement-Khosro Kashani-73B-3-Tract 024.1.doc2017-07-14 13:57 20K 
[   ]23700 Purchase Sewer Easement-Khosro Kashani-73B-3-Tract 025.1.doc2017-07-14 13:57 19K 
[   ]23701 Purchase Sewer Easement-Kevin-Nita Shumaker-73B-3-Tract 034.1.doc2017-07-14 13:57 20K 
[   ]23702 AcquireProp-MR-2003-019-City-frm Atchley-73B Hixson Marina.doc2017-07-14 13:57 20K 
[   ]23703 Donate-St Elmo Improvement League-4501 St Elmo Ave.doc2017-07-14 13:57 20K 
[   ]23704 Agmt-TDOT-SChickamaugaCreek-bridge-approaches.doc2017-07-14 13:57 20K 
[   ]23705 Agmt-Consolidated Technologies-S-03-001-100-FloodContrl-WarnerPark-EngelStad.doc2017-07-14 13:57 20K 
[   ]23706 Agmt-Orange Grove Ctr-recycling program 2002-2003.doc2017-07-14 13:57 19K 
[   ]23707 Agmt-American Communities Fund-Alton Park Hope VI.doc2017-07-14 13:57 21K 
[   ]23708 Award DRC Office Buildout-DP Construction.doc2017-07-14 13:57 20K 
[   ]23709 Award Lakeside Ballfield Concession-Eastman Construction.doc2017-07-14 13:57 21K 
[   ]23710 Rescind Reso No 23644-Signal Mtn Rd Widening-Case Const.doc2017-07-14 13:57 20K 
[   ]23711 Transfer funds to TDOT-LP1982 Hamill Rd.doc2017-07-14 13:57 21K 
[   ]23712 Transfer funds to TDOT-LP3269-Shallowford Rd.doc2017-07-14 13:57 21K 
[   ]23713 Accept funds from DeptTreasury-Industrial Pretreatment Program.doc2017-07-14 13:57 21K 
[   ]23714 Change Order 1-SS-6-00-Ooltewah Nursery.doc2017-07-14 13:57 20K 
[   ]23715 Declaration-agmt sewer line-Kenco Group Inc.doc2017-07-14 13:57 21K 
[   ]23716 Declaration-agmt sewer line-ConAgra Poultry Co.doc2017-07-14 13:57 21K 
[   ]23717 Purchase Sewer Easement-Don Moon-73B-3-Tract 027.1.doc2017-07-14 13:57 19K 
[   ]23718 Purchase deed Perp Channel Imp-James Cheryl Trimble-Rivebank Stabilization.doc2017-07-14 13:57 20K 
[   ]23719 Temp Usage-BRD Properties.doc2017-07-14 13:57 23K 
[   ]23720 Temp Usage-Linda McFalls-Missionary Ridge Neigh Assoc.doc2017-07-14 13:57 25K 
[   ]23721 Temp Usage-Malcolm Walker-Shepherd Comm Council.doc2017-07-14 13:57 23K 
[   ]23722 Approve Alton Park Redevelopment Plan.doc2017-07-14 13:57 29K 
[   ]23723 Preliminary PUD-2003-010 S. Reginald Ruff III.doc2017-07-14 13:57 21K 
[   ]23724 Final PUD-2003-010 S Reginald Ruff III.doc2017-07-14 13:57 23K 
[   ]23725 Appropriate 15million-captial improvments budget.doc2017-07-14 13:57 25K 
[   ]23726 Agmt-Tn Dept EnvironmentTDEC-adopt-sanitary sewer manual.doc2017-07-14 13:57 20K 
[   ]23727 Agmt-Khafra Engineering-E-2-019 Hamill Rd .doc2017-07-14 13:57 20K 
[   ]23728 Agmt-Consolidated Tech-E-02-001-200 Tunnel Blvd.doc2017-07-14 13:57 20K 
[   ]23729 Agmt-Franklin Assoc-E-02-018-100 Mtn Creek Sidewalks.doc2017-07-14 13:57 21K 
[   ]23730 Change Order 1 final-RW-3-00-Jones Bros.doc2017-07-14 13:57 22K 
[   ]23731 Purchase Sewer Easement-Gary Jaynes-73B3-Tract 033.1.doc2017-07-14 13:57 20K 
[   ]23732 Purchase Sewer Easement-Charles-Sonia Marsh-Tract .066.doc2017-07-14 13:57 20K 
[   ]23733 Temp Usage - Conoco Phillips Co-Rosemont Dr.doc2017-07-14 13:57 23K 
[   ]23734 Agmt-Teladjust Inc - telecommunications audit.doc2017-07-14 13:57 20K 
[   ]23735 Purchase ROW-from Koch Foods Inc.doc2017-07-14 13:57 20K 
[   ]23736 Payment-Shallowford Commons Assoc-road improvements.doc2017-07-14 13:57 22K 
[   ]23737 Extend PerSerContract-CityScape Devel-EnterpriseS(VAAP).doc2017-07-14 13:57 21K 
[   ]23738 Purchase Sewer Easement-John-Annie Polasko-73B3-Tract 10.A.doc2017-07-14 13:57 20K 
[   ]23739 Auth Execution State Revolving Loan Fund App-Wastewater facilities.doc2017-07-14 13:57 21K 
[   ]23740 Establish Animal Spay and Neuter Task Force.doc2017-07-14 13:57 20K 
[   ]23741 Award E-02-017 - 17th St Extension to Talley Const.doc2017-07-14 13:57 20K 
[   ]23742 Award 28K2 Moccasin Bend WWTP Sludge Sys-Max Foote Const.doc2017-07-14 13:57 21K 
[   ]23743 Award W-02-012-200 MLK Stormwater Detention-Mayse Const.doc2017-07-14 13:57 21K 
[   ]23744 Award W-03-002-100 Market St Stormdrain-Arcadis.doc2017-07-14 13:57 20K 
[   ]23745 Award 81C-Signal Mtn Rd Project Widening-E TN Grading.doc2017-07-14 13:57 20K 
[   ]23746 Change Order 1 - JDH Co - Fire Hall 20 roof.doc2017-07-14 13:57 20K 
[   ]23747 Change Ord 1 - LookoutValleyBallfieldConcession-Eastman Const.doc2017-07-14 13:57 20K 
[   ]23748 Agmt-Friends of Chatta Animal Ser-off leash park.doc2017-07-14 13:57 24K 
[   ]23749 Agmt-Tyner Rec Center-pave parking-Cards Paving.doc2017-07-14 13:57 20K 
[   ]23750 Accept $1,000 from 1st TN Bank-therapeutic programming.doc2017-07-14 13:57 20K 
[   ]23751 Temp Usage - Stone Fort Inn - 120 E 10th St.doc2017-07-14 13:57 23K 
[   ]23752 Temp Usage - s2m2 Pattern and Foundry-1334 Stuart St.doc2017-07-14 13:57 23K 
[   ]23753 Issue-Sale Gen Obligation Bond Series 2003A.doc2017-07-14 13:57 72K 
[   ]23754 General Obligation Sewer-Sewage Facilities Refunding Bonds 2003B.doc2017-07-14 13:57 72K 
[   ]23755 Auth Contract Moriah Group - Renewal Tax Program.doc2017-07-14 13:57 22K 
[   ]23756 Auth Contract Thinking Media-renewal tax program.doc2017-07-14 13:57 22K 
[   ]23757 Convey Aquarium Plaza parcel to Tn Aquarium.doc2017-07-14 13:57 25K 
[   ]23758 Agmt - American Heart Assoc-use property 507 E4th St.doc2017-07-14 13:57 20K 
[   ]23759 Apply-Accept Grants-for homlessness in s2m2.doc2017-07-14 13:57 20K 
[   ]23760 Contract-Visionair Inc for Records Mgmt System.doc2017-07-14 13:57 20K 
[   ]23761 Amend 1-ConsolidatedTech-W-02-012 MLK Stormwater Detention.doc2017-07-14 13:57 20K 
[   ]23762 Change Order 3(final)-SS-3-01-Raines Bros.doc2017-07-14 13:57 20K 
[   ]23763 Transfer DeedPerpChannel-Hamilton Cty Tract 600E.doc2017-07-14 13:57 19K 
[   ]23764 Transfer DeedPerpChannel-Hamilton Cty Tract 601E.doc2017-07-14 13:57 19K 
[   ]23765 Temp Usage - China Cafe - 14 E 7th St.doc2017-07-14 13:57 23K 
[   ]23766 Temp Usage - Glass Farm Neighborhood Assn.doc2017-07-14 13:57 24K 
[   ]23767 Appoint L Joe Ferguson EPB Chairman.doc2017-07-14 13:57 22K 
[   ]23768 Award Gen Obligation Bonds 2003A-$12190000.doc2017-07-14 13:57 45K 
[   ]23769 Auth Gen Obligation Sewer and Sewage Refunding Bonds 2003B.doc2017-07-14 13:57 29K 
[   ]23770 Auth Loan Agmt-$6Mil initial reso.doc2017-07-14 13:57 27K 
[   ]23771 Approve Loan-FY 2002 capital budget $6Mil.doc2017-07-14 13:57 26K 
[   ]23772 Spec Comm-Smith-Pope-McBee-Holmes-Turner-Cutter-PD Property.doc2017-07-14 13:57 22K 
[   ]23773 Easement permanent-EPB-145B-A-001.04.doc2017-07-14 13:57 19K 
[   ]23774 Lease Agmt WDSI Fox 61-Antenna-Dogwood Manor.doc2017-07-14 13:57 21K 
[   ]23775 Community Dev Block Grant 2003-04.doc2017-07-14 13:57 24K 
[   ]23776 East Brainerd Rd Use Plan.doc2017-07-14 13:57 22K 
[   ]23777 Apply for Edward Byrne grant.doc2017-07-14 13:57 21K 
[   ]23778 Apply-Accept Grant-for Re-entry to community of adult Offenders.doc2017-07-14 13:57 20K 
[   ]23779 Agmt-TDOT-No E-02-033-2way street conversion.doc2017-07-14 13:57 21K 
[   ]23780 Award E-02-003-200 MLK 2 way Conversion-Talley Const.doc2017-07-14 13:57 20K 
[   ]23781 Agmt-Arcadis-No E-02-003-2way street conversion.doc2017-07-14 13:57 21K 
[   ]23782 Apply for Grant-US Fire Admin FEMA.doc2017-07-14 13:57 20K 
[   ]23783 Adopt Hill City-Northside Neighborhood Plan.doc2017-07-14 13:57 22K 
[   ]23784 Change Order 1-2 - 311 Call center-McBrayer Const.doc2017-07-14 13:57 20K 
[   ]23785 Back Tax Sale Authorization (2003).doc2017-07-14 13:57 25K 
[   ]23786 Change Order 8 - CSO-6-99-Raines Bros.doc2017-07-14 13:57 20K 
[   ]23787 Change Order 2 final-SS-2-01-J J Contractors.doc2017-07-14 13:57 20K 
[   ]23788 Extend Contract Public Financial Management-advisory.doc2017-07-14 13:57 20K 
[   ]23789 Lease Agmt-Friends of the Festival-Riverbend 2003.doc2017-07-14 13:57 19K 
[   ]23790 Award Memorial Auditorium renovationsEastman Const.doc2017-07-14 13:57 20K 
[   ]23791 Agmt-Volkert -No 3-03-004-100-17th Streetscape.doc2017-07-14 13:57 20K 
[   ]23792 Supp Agmt-TDOT-No 81C-SignalMtn Blvd SewerRelocation .doc2017-07-14 13:57 20K 
[   ]23793 Work Auth-Arcadis-No E-03-005-2way street conversion Cherry-7th-8th.doc2017-07-14 13:57 20K 
[   ]23794 Award W-03-001-200-Summitt Landfill Gas Ext-Waste Energy Tech.doc2017-07-14 13:57 20K 
[   ]23795 Agmt Ringgold Wastewater treatment.doc2017-07-14 13:57 19K 
[   ]23796 Spec Comm-Curtis Green-Erik Reeves-Housing Authority.doc2017-07-14 13:57 21K 
[   ]23797 Apply-Accept Grant-Dept Agriculture-Urban & Community Forestry Prog.doc2017-07-14 13:57 19K 
[   ]23798 Purchase Sewer Easement-John-Stephanie Cate-Tract TE-02.1.doc2017-07-14 13:57 19K 
[   ]23799 Temp Usage - Conestoga-Rovers & Assoc-6100 Block Airways Blvd.doc2017-07-14 13:57 24K 
[   ]23800 Spec Comm-Holiday-Hennessee-Weller-Erlanger.doc2017-07-14 13:57 20K 
[   ]23801 Apply-Accept Grant-Highway Safety-collision report system.doc2017-07-14 13:57 20K 
[   ]23802 Transfer Credits From One Account to Another 2003.doc2017-07-14 13:57 19K 
[   ]23803 Award 28J2 Moccasin Bend WWTP Oxygenation Equip-H&H Brown.doc2017-07-14 13:57 21K 
[   ]23804 Agmt-Consolidated Tech-E-03-007-100 Wilcox Blvd Tunnel.doc2017-07-14 13:57 21K 
[   ]23805 Spec Comm-CARTA-Leslie Freeman.doc2017-07-14 13:57 21K 
[   ]23806 Contract Atlas Roofing-Chatta-Ham Cty Rescue Bldg.doc2017-07-14 13:57 20K 
[   ]23807 Award CedarHill Ctr-roof-Porter Roofing.doc2017-07-14 13:57 19K 
[   ]23808 Award Avondale Head St-roof-Total Bldg Maintenance.doc2017-07-14 13:57 19K 
[   ]23809 Agmt-Cincinnati-New Orleans RR-sewer lines milepost 1-11.doc2017-07-14 13:57 21K 
[   ]23810 GrantEasement-BellSouth-Coolidge Park.doc2017-07-14 13:57 20K 
[   ]23811 Agmt-DuPont Park clearing-Eastman Const.doc2017-07-14 13:57 20K 
[   ]23812 Accept 10K from Hamilton Place Mall-project choices.doc2017-07-14 13:57 20K 
[   ]23813 Apply-accept Grant-TnComm on Children-Youth-OutVenture Prog.doc2017-07-14 13:57 19K 
[   ]23814 Accept Easement-Best Plumbing-S Chickamauga Greenway.doc2017-07-14 13:57 20K 
[   ]23815 Interlocal Agmt-Hamilton Cty-GIS.doc2017-07-14 13:57 20K 
[   ]23816 Temp Usage -Fletcher Bright Co-Greenway Dr.doc2017-07-14 13:57 23K 
[   ]23817 Temp Usage - MACTEC Engineering-Standifer Gap.doc2017-07-14 13:57 24K 
[   ]23818 Donate 10K to First Tee of s2m2.doc2017-07-14 13:57 19K 
[   ]23819 Purchase Sewer Easement-Carl C Price Tract 3.doc2017-07-14 13:57 19K 
[   ]23820 Purchase Deed Perp Channel Imp-James-Melissa Wolford Tract 605E.doc2017-07-14 13:57 19K 
[   ]23821 Transfer DeedPerpChannel-Hamilton Cty-Tract 604E.doc2017-07-14 13:57 20K 
[   ]23822 Transfer DeedPerpChannel-Hamilton Cty-Tract 605E.doc2017-07-14 13:57 20K 
[   ]23823 Apply for grant-Project Safe Neighborhoods.doc2017-07-14 13:57 20K 
[   ]23824 Apply for grant-Highway Safety Office -Under-age Drinking Task Force.doc2017-07-14 13:57 19K 
[   ]23825 Temp Usage -McKibbon Hotel Group-Chestnut St.doc2017-07-14 13:57 26K 
[   ]23826 Moratorium for Building on Flag Lots.doc2017-07-14 13:57 20K 
[   ]23827 Moratorium - bldg permit in N s2m2.doc2017-07-14 13:57 22K 
[   ]23828 Zoning Study in N s2m2.doc2017-07-14 13:57 25K 
[   ]23829 Spec Comm-Henry Yankowski-Public Works.doc2017-07-14 13:57 22K 
[   ]23830 Spec Comm-Thomas Spurlock-armed-Erlanger.doc2017-07-14 13:57 21K 
[   ]23831 Apply for grant-Homeland Security Overtime Prog.doc2017-07-14 13:57 20K 
[   ]23832 Auth Contract with Cigna Ins - health care.doc2017-07-14 13:57 23K 
[   ]23833 Auth Mayor Apply for HUD Grant-community education.doc2017-07-14 13:57 23K 
[   ]23834 Appt Lee Norris-Rep SE Municipal Solid Waste Planning Bd-PW.doc2017-07-14 13:57 21K 
[   ]23835 Auth Agmt Hamilton Cty Courts Comm Ser Program.doc2017-07-14 13:57 23K 
[   ]23836 Purchase Sewer Easement-Jeff-Kimberly Hollister-Tract 103.2.doc2017-07-14 13:57 20K 
[   ]23837 Award W-02-001-300 N Chatta Sewer- E TN Grading.doc2017-07-14 13:57 21K 
[   ]23838 Waive Bldg Permit Fee-flood damaged properties.doc2017-07-14 13:57 21K 
[   ]23839 Amend No 23827 Moratorium-bldg permit N s2m2.doc2017-07-14 13:57 23K 
[   ]23840 Rescind No 23826-Moratorium for Building on Flag Lots.doc2017-07-14 13:57 21K 
[   ]23841 Approve & Adopt s2m2 Public Art Plan.doc2017-07-14 13:57 21K 
[   ]23842 Change Order 1 final-CSO-6-99 Downs Engineering.doc2017-07-14 13:57 21K 
[   ]23843 Temp Usage-Delta Environmental Consultants-Worsley Co.doc2017-07-14 13:57 25K 
[   ]23844 Temp Usage - Intech Inc.doc2017-07-14 13:57 24K 
[   ]23845 Temp Usage - Loren D Lee - Qdoba Grill.doc2017-07-14 13:57 25K 
[   ]23846 MR-2003-110 City of s2m2 purchase 907 Wall St.doc2017-07-14 13:57 20K 
[   ]23847 Award East Lake Rec Cntr to Artech Design.doc2017-07-14 13:57 21K 
[   ]23848 Purchase Sewer Easement-Robert-Barbara Covington Tract 104.4.doc2017-07-14 13:57 20K 
[   ]23849 Temp Usage - Main St Warehouse-Jim Cooper.doc2017-07-14 13:57 25K 
[   ]23850 Amend No 23838 Waive Bldg Permit Fee-Flood damaged properties.doc2017-07-14 13:57 21K 
[   ]23851 Award Daisy Head Start flooring - Eastman Const.doc2017-07-14 13:57 20K 
[   ]23852 Award Avondale Head Start remodeling-Foster Const.doc2017-07-14 13:57 20K 
[   ]23853 Payment-Hamilton Cty RR Auth - admin costs.doc2017-07-14 13:57 21K 
[   ]23854 Memorandum Agmt-Health Dept-Medical Response Sys-chemical antidotes.doc2017-07-14 13:57 21K 
[   ]23855 Maintenance Agmt-TDOT-State hwys FY 2003-2004.doc2017-07-14 13:57 20K 
[   ]23856 Award City-Funded Neighborhd Grants 2003-2004.doc2017-07-14 13:57 20K 
[   ]23857 Award Avondale Head Start carpeting-Keys Carpet.doc2017-07-14 13:57 20K 
[   ]23858 Award Daisy Head Start classroom addition-Eastman Const.doc2017-07-14 13:57 20K 
[   ]23859 Change Boundaries of Central Business Zone 2003.doc2017-07-14 13:57 26K 
[   ]23860 Adopt Lookout Valley Area Plan.doc2017-07-14 13:57 23K 
[   ]23861 Amend EPB Interlocal Agmt - Prop 500 Market TO CDRC.doc2017-07-14 13:57 22K 
[   ]23862 Preliminary PUD 2003-088 Pratt Assoc.doc2017-07-14 13:57 22K 
[   ]23863 Amend 1-ConsolidatedTech-Birchwood Landfill Area III.doc2017-07-14 13:57 20K 
[   ]23864 Agmt-Consolidated Tech - Stuart Heights Interceptor-Dupont Pump Station.doc2017-07-14 13:57 20K 
[   ]23865 Accept Easement-Shallowford Rd-US Post Office.doc2017-07-14 13:57 21K 
[   ]23866 Agmt-Volkert Assoc-SS-6-00 Market St Streetscape 4th-5th sts.doc2017-07-14 13:57 20K 
[   ]23867 Temp Usage-George J Bailey-Meadow Trace.doc2017-07-14 13:57 24K 
[   ]23868 Temp Usage-Environmental Sys for CARTA-Wilcox Ave.doc2017-07-14 13:57 26K 
[   ]23869 Accept JDH Co bid - roof at Firestation No 1.doc2017-07-14 13:57 21K 
[   ]23870 Contract Pennrose Prop - Hope VI infrastructure.doc2017-07-14 13:57 23K 
[   ]23871 Award E-03-012 Paving MLK to Vulcan Materials.doc2017-07-14 13:57 21K 
[   ]23872 Change Order Lakeside Concession Stand - Eastman Construction.doc2017-07-14 13:57 21K 
[   ]23873 Award Shepherd Rec Cntr to Robert Smith Paving.doc2017-07-14 13:57 21K 
[   ]23874 Auth Contract with Always on Line for 311 Call Center.doc2017-07-14 13:57 23K 
[   ]23875 Transfer funds TDOT Shallowford Rd Bridge ovr Friars Branch.doc2017-07-14 13:57 22K 
[   ]23876 Purchase Sewer Easement-Jereline Sanders - Tract 22.doc2017-07-14 13:57 20K 
[   ]23877 Purchase Sewer Easement-Naisher TN Assoc - Tract 13.doc2017-07-14 13:57 20K 
[   ]23878 Rescind Reso No 23806 Atlas Roofing-Rescue Bldg.doc2017-07-14 13:57 21K 
[   ]23879 Contract JDH Co-roof at Rescue Bldg.doc2017-07-14 13:57 21K 
[   ]23880 Temp Usage Yacoubian Tailors.doc2017-07-14 13:57 24K 
[   ]23881 Purchase Sewer Easement s2m2 Golf Tract 01.doc2017-07-14 13:57 20K 
[   ]23882 Purchase Sewer Easement s2m2 Golf Tract 02.doc2017-07-14 13:57 20K 
[   ]23883 Purchase Sewer Easement Hanover Properties Tract 03.doc2017-07-14 13:57 20K 
[   ]23884 Purchase Sewer Easement Hanover Properties Tract 04.doc2017-07-14 13:57 20K 
[   ]23885 Adopt S Broad Redevelopment Plan.doc2017-07-14 13:57 22K 
[   ]23886 Amend Nos 23839-23827 to Extend N Chatta Moratorium 60 days.doc2017-07-14 13:57 21K 
[   ]23887 Humane Ed Society Contract 2002-03 Extend 3 months.doc2017-07-14 13:57 20K 
[   ]23888 Temp Usage Michael Goodman-Honest Charley.doc2017-07-14 13:57 1.0M 
[   ]23889 Auth Mayor-ProfSerAgmt-Greer C Tidwell-Enterprise South.doc2017-07-14 13:57 21K 
[   ]23890 Auth-Accept Local Law Enforcement Block Grant 2003-05.doc2017-07-14 13:57 20K 
[   ]23891 Agmt-TDOT-Proposal Shallowford Rd STP-M-9202(51).doc2017-07-14 13:57 20K 
[   ]23892 Accept PermSewer Easement-Chau Min Lin - Tract 117.doc2017-07-14 13:57 20K 
[   ]23893 Accept PermSewer Easement-James-Lorie Marsh Tract 052.1.doc2017-07-14 13:57 20K 
[   ]23894 Accept PermSewer Easement-Marina Cove Place-Tract 053.1.doc2017-07-14 13:57 20K 
[   ]23895 Temp Usage - Shields Electronics Supply.doc2017-07-14 13:57 24K 
[   ]23896 Modify Memorandum Agmt-US Health Human Ser-Medical Response Sys-chemical antidotes.pdf2017-07-14 13:57 419K 
[   ]23897 Temp Usage - Derek-Amy Blakney.doc2017-07-14 13:57 25K 
[   ]23898 Purch light poles-Enterprise South-Stuart Irby Co.doc2017-07-14 13:57 20K 
[   ]23899 Apply-Accept Grant-TN Dept Environment-Haz Waste 2003-04.doc2017-07-14 13:57 20K 
[   ]23900 Change Order 1 Final-E-02-001-Highways Inc.doc2017-07-14 13:57 21K 
[   ]23901 Change Order 2-MB-1-00- Moc Bend WWTP-Synagro.doc2017-07-14 13:57 21K 
[   ]23902 Purchase Property from Osboborne Foundation for taxes owed MR-2003-122.doc2017-07-14 13:57 21K 
[   ]23903 Conservation Agmt - Trust for Public Land-Greenway Proj.pdf2017-07-14 13:57 3.0M 
[   ]23904 Proposal-Friends of Zoo-for Ranch Exhibit.doc2017-07-14 13:57 21K 
[   ]23905 Lease Agmt-N Chickamauga Creek Conservancy-Greenway Farm.pdf2017-07-14 13:57 1.2M 
[   ]23906 Award Glenwood Rec Center - Artech Design Group.doc2017-07-14 13:57 21K 
[   ]23907 Contract Dupont Soccer Complex to Strauss Co.doc2017-07-14 13:57 21K 
[   ]23908 Agmt-Motorola re radio communications equipment.doc2017-07-14 13:57 21K 
[   ]23909 Auth Mayor-Agmt-County & 911 re radio communications.doc2017-07-14 13:57 21K 
[   ]23910 Auth Mayor-Agmt-County-re radio communications update.doc2017-07-14 13:57 21K 
[   ]23911Temp Usage - Ewen Environmental 500-800 Riverfront Pkwy.doc2017-07-14 13:57 25K 
[   ]23912Temp Usage Amend No 23721-Malcolm Walker-Shepherd Comm Council.doc2017-07-14 13:57 25K 
[   ]23913 Temp Usage - Lemont's Catering - 800 block Dodds Avenue.doc2017-07-14 13:57 24K 
[   ]23914 Agmt-Gershman, Brickner & Bratton re prof services- solid waste managment.doc2017-07-14 13:57 21K 
[   ]23915 Spec Comm-Moore, Pickens, Robertson, Chandler, Cook, Jackson, Mingo, Flanagan-Ham.Co Parks.doc2017-07-14 13:57 21K 
[   ]23916 Agreement-Stokes Bartholomew Evans & Petree-lobbying ser 2003-04.doc2017-07-14 13:57 21K 
[   ]23917 Amend No 23495-Summit Landfill amount of agmt.doc2017-07-14 13:57 21K 
[   ]23918 Amend No 23397-BirchwoodLandfill-TNWasteMgmt.doc2017-07-14 13:57 21K 
[   ]23919 Award No 28L Solids Handling Moccasin Bend WWTP - Jake Marshall.doc2017-07-14 13:57 21K 
[   ]23920 Dedication to Leon Silberman and Tom Owens - bike trails.doc2017-07-14 13:57 22K 
[   ]23921 Moratorium 90 days - licenses for adult oriented establishments .doc2017-07-14 13:57 21K 
[   ]23922 Surplus and Sale of 1701 Market St to Tower Place.pdf2017-07-14 13:57 937K 
[   ]23923 Agmt Dennis Smith - Inspector for PW.doc2017-07-14 13:57 21K 
[   ]23924 Change Order 1 (final) E-02-017 - Talley Construction.doc2017-07-14 13:57 21K 
[   ]23925 ChangeOrder 1 Sheperd Rec Center - Robert Smith Inc.doc2017-07-14 13:57 21K 
[   ]23926 Change Order 2 (final) -SS-6-00-Ooltewah Nursery.doc2017-07-14 13:57 21K 
[   ]23927 Bushtown Zoning Study.doc2017-07-14 13:57 20K 
[   ]23928 Building Permit Moratorium - Bushtown.pdf2017-07-14 13:57 215K 
[   ]23929 Change Order 2 - 28K(EP-3) Ondeo Degremont - Moc Bend WWTP.doc2017-07-14 13:57 21K 
[   ]23930 Agmt-Fuller Mossbarger et al- Forest Highlands flood mitigation.doc2017-07-14 13:57 20K 
[   ]23931 Spec Comm-Ivan Allen-armed-Erlanger.doc2017-07-14 13:57 21K 
[   ]23932 Contract East Lake Rec Center to Eastman Construction.doc2017-07-14 13:57 21K 
[   ]23933 Moratorium 60 days for Building on Flag Lots.doc2017-07-14 13:57 20K 
[   ]23934 Adopt East Brainerd Road Land Use Plan.pdf2017-07-14 13:57 791K 
[   ]23935 Amend No 23927 Bushtown Study area.doc2017-07-14 13:57 22K 
[   ]23936 Award E-02-018 Mtn Creek-Browns Ferry - Interstate Concrete - Yerby Concrete.doc2017-07-14 13:57 21K 
[   ]23937 Award E-02-013-201 to Southern Constructors-Walnut St Bridge repair.doc2017-07-14 13:57 21K 
[   ]23938 Amendment 2-ConsolidatedTech-W-02-012-MLK Stormwater Facilities.doc2017-07-14 13:57 20K 
[   ]23939 Temp Usage - Alma Properties LLC.doc2017-07-14 13:57 25K 
[   ]23940 Temp Usage - Charles Ward.doc2017-07-14 13:57 25K 
[   ]23941 Agmt QL Consulting - outdoor amenities in Chatta.doc2017-07-14 13:57 21K 
[   ]23942 Agmt TDOT Interchage-Enterprise South Access Rd.doc2017-07-14 13:57 21K 
[   ]23943 Amend No 23839 - extend bldg permit moratorium.doc2017-07-14 13:57 20K 
[   ]23944 Amend No 1 - SRF Loan 2003-168.doc2017-07-14 13:57 29K 
[   ]23945 Temp Usage - Thomas Montague-Bellies and Babies.doc2017-07-14 13:57 24K 
[   ]23946 Auth Grant - Crime Stoppers 10K.doc2017-07-14 13:57 23K 
[   ]23947 Auth Migration Trend Study.doc2017-07-14 13:57 26K 
[   ]23948 Award Sidewalks Contracts E-03-21 - E-03-22 E-03034 to Yerbey Concrete.doc2017-07-14 13:57 21K 
[   ]23949 Temp Usage - Devan Norman - Design Builders.pdf2017-07-14 13:57 2.7M 
[   ]23950 Surplus and Sale MR-2003-184- 2712 E 13th St to McCallie School.pdf2017-07-14 13:57 1.4M 
[   ]23951 Accept Easement-IDB-Komatsu - Mundy St driveway.pdf2017-07-14 13:57 906K 
[   ]23952 Agmt - IDB-Komatsu- driveway on Mundy St.pdf2017-07-14 13:57 129K 
[   ]23953 Amend No 23872 Change Order Lakeside Concession Stand - Eastman Construction.doc2017-07-14 13:57 21K 
[   ]23954 Spec Comm-Jeremy Swilley -Stormwater.doc2017-07-14 13:57 23K 
[   ]23955 Accept 5K ea from Lyndhurst and Community Foundations-outdoor initiative website.doc2017-07-14 13:57 21K 
[   ]23956 Accept $3600 ea from Chatta Tennis Assoc and Foundation-Therapeutic Rec Program.doc2017-07-14 13:57 21K 
[   ]23957 AcquireProp-MR-2003-144-from Osborne Bldg Corp.pdf2017-07-14 13:57 1.2M 
[   ]23958 Purchase ROW - Timothy and Joy Ann Whitmill-Tract 11-E02-007.pdf2017-07-14 13:57 850K 
[   ]23959 Purchase ROW - Tomothy and Joy Ann Whitmilll-Tract 12-E02-007.pdf2017-07-14 13:57 819K 
[   ]23960 Loan Application (108) for Hope VI.doc2017-07-14 13:57 24K 
[   ]23961 Apply for Grant-FEMA-fire prevention and safety 2003.doc2017-07-14 13:57 20K 
[   ]23962 Zoning Study Fortwood-UTC area.doc2017-07-14 13:57 25K 
[   ]23963 Extend 3 MTH PerSerContract-CityScape Devel-EnterpriseS(VAAP).doc2017-07-14 13:57 21K 
[   ]23964 Spec Comm-armed Laban R. Defriese Jr - Erlanger.doc2017-07-14 13:57 21K 
[   ]23965 Temp Usage Ooltewah United Methodist- 9200 Lee Hwy.doc2017-07-14 13:57 25K 
[   ]23966 Temp Usage - North Hixson Church of Christ - 5400 blk Hixson Pike.doc2017-07-14 13:57 24K 
[   ]23967 Recognize Community Impact of s2m2.DOC2017-07-14 13:57 29K 
[   ]23968 Lease Agmt-Clear Channel Outdoor-Amnicola Hwy.doc2017-07-14 13:57 20K 
[   ]23969 Lease Agmt Ken DeFoor Properties Hixson Civic Center.pdf2017-07-14 13:57 4.3M 
[   ]23970 Agmt-Volkert Assoc-E-02-008 - Hamill Rd.doc2017-07-14 13:57 20K 
[   ]23971 Agmt-Volkert Assoc-E-03-030-101-Carter St Streetscape.doc2017-07-14 13:57 20K 
[   ]23972 Purchase Rail System at VAAP - US Gen Ser Admin.DOC2017-07-14 13:57 27K 
[   ]23973 Purchase Property - 8 acres at VAAP - US Gen Ser Admin.DOC2017-07-14 13:57 26K 
[   ]23974 Humane Ed Society Contract 2002-03 Extend thru 11-03.doc2017-07-14 13:57 20K 
[   ]23975 Humane Ed Society Contract for 1 year 11-03.pdf2017-07-14 13:57 320K 
[   ]23976 Change Order 1 - Fire Hall 1 - JDH Co.doc2017-07-14 13:57 21K 
[   ]23977 Transfer Property to Chatta Community Housing Dev Corp -155NE033.pdf2017-07-14 13:57 736K 
[   ]23978 Donate Property-MR-2003-160-Citico Ave to 28th CDC Dev Corp.pdf2017-07-14 13:57 1.1M 
[   ]23979 Agmt-TN Valley Railroad Museum - 3rd St Bridge project.doc2017-07-14 13:57 20K 
[   ]23980 Award W-03-005 to East Tenn Grading - Mayse Const.doc2017-07-14 13:57 21K 
[   ]23981 Award W-03-005 and 008 - Miller Pipeline.doc2017-07-14 13:57 21K 
[   ]23982 Payments to Childrens home-Chambliss Shelter 5 years.doc2017-07-14 13:57 21K 
[   ]23983 Spec Comm - Charles Hughley - City Court.doc2017-07-14 13:57 26K 
[   ]23984 Contract re-roof Tivoli - JDH Roofing.doc2017-07-14 13:57 25K 
[   ]23985 Agmt Coolidge Park painting Walker Pavilion- Eastman Construction.doc2017-07-14 13:57 25K 
[   ]23986 Agmt Coolidge Park painting carousel bldg- Eastman Construction.doc2017-07-14 13:57 25K 
[   ]23987 Apply-accept Grant-Hazard Mitigation-TEMA -May flood 03.doc2017-07-14 13:57 25K 
[   ]23988 Change Order 1 (final) -SS-6-00-East TN Grading.doc2017-07-14 13:57 25K 
[   ]23989 Amend 3-SS-6-00-Volkert Assoc-Market St.doc2017-07-14 13:57 25K 
[   ]23990 Agmt-W-03-009-101-Ashland Terrace Sewer- Consolidated Tech.doc2017-07-14 13:57 24K 
[   ]23991 Agmt-W-03-004-101 Shallowford Rd Sewer-Consolidated Tech.doc2017-07-14 13:57 24K 
[   ]23992 Work Auth No 23-Arcadis-E-02-003 - 2 way St conversion.doc2017-07-14 13:57 24K 
[   ]23993 Contract police canopy Eastman Const.doc2017-07-14 13:57 25K 
[   ]23994 Establish Tree Protection-Resource Mgmt Advisory Committee re clear cutting ordinance.doc2017-07-14 13:57 27K 
[   ]23995 Lease Agmt - ESpin Technologies - Raytheon Bldg.doc2017-07-14 13:57 25K 
[   ]23996 Expediture-infrstructure improvements for Raytheon Plant at Enterprise South.doc2017-07-14 13:57 25K 
[   ]23997 Wellness Program with s2m2-Hamilton Cty Hospital Auth.doc2017-07-14 13:57 25K 
[   ]23998 Interlocal Agmt Hamilton Cty-communication equip-Homeland Security Grant.doc2017-07-14 13:57 32K 
[   ]23999 Interlocal Agmt Hamilton Cty-communication equip-Homeland Security Grant.doc2017-07-14 13:57 46K 
[   ]24000 WNA American Plastic Industries-payments in lieu of Ad valorem tax.DOC2017-07-14 13:57 49K 
[   ]24001 Convey property - Hunter Museum and Plaza Expansion.doc2017-07-14 13:57 25K 
[   ]24002 Purchase Property Watkins St- from Dixie Group.pdf2017-07-14 13:57 3.4M 

Apache/2.4.18 (Ubuntu) Server at www.chattanooga Port 80
www.ka4alka.com.ua/tabletirovannie/metan/danabol

chemtest.com.ua

gazon.net.ua